* Astronomy

Members Login
Post Info TOPIC: Soyuz Rocket Body Re-entry


L

Posts: 131433
Date:
RE: Soyuz Rocket Body Re-entry
Permalink  
 


Update:
A Soyuz SL-4 rocket body re-entered the Earths atmosphere on the 19th December, 2010 @ 03:45 GMT  ±1 minute.

Inclination: 51.64°
Revolution Number: 51   
Predicted Location:  14°S, 208°E

__________________


L

Posts: 131433
Date:
Permalink  
 

A Soyuz SL-4 rocket body is predicted to re-enter the Earths atmosphere on the 19th December, 2010 @ 03:17 GMT  ±15 hours.

TLE Data
SL-4 RB
1 37255U 10067B 10352.55194267 .05880126 12361-4 53388-3 0 141
2 37255 051.6174 006.2350 0013310 082.6110 278.6234 16.37771425 421

Period:       88.61 minutes
Inclination: 51.64°
Apogee:     222 km
Perigee:     189 km
Revolution Number: 53   
Predicted Location:  22.5°S, 66.2°E

__________________


L

Posts: 131433
Date:
Soyuz SL-4 Rocket Body Re-entry
Permalink  
 


A Soyuz SL-4 rocket body is predicted to re-enter the Earths atmosphere on  the 19th December, 2010 @ 02:29 GMT  ±24 hours.

TLE Data
SL-4 RB
1 37255U 10067B 10351.26615196 .02416529 12099-4 57549-3 0 114
2 37255 051.6262 013.4217 0020723 080.3485 280.4426 16.28109198 210

Period:       - minutes
Inclination: 51.6°
Apogee:     - km
Perigee:     - km
Size:          - metres
Revolution Number: 52   
Predicted Location:  10.5°N, 247.7°E

__________________


L

Posts: 131433
Date:
Soyuz Rocket Body Re-entry
Permalink  
 


A piece of Soyuz rocket body that was launched on the 15th December, 2010, from the Baikonur Cosmodrome in Kazakhstan, for the Soyuz TMA-20 mission is predicted to re-enter the Earths atmosphere on  the 19th December, 2010 @ 07:42 GMT  ±13 hours.

TLE Data
OBJECT B
1 37255U 10067B 10350.42915630 -.00003793 11992-4 00000+0 0 73
2 37255 051.6305 018.0620 0023806 082.6451 054.4081 16.24429101 75

Period:       - minutes
Inclination: 51.6°
Apogee:     - km
Perigee:     - km
Size:          - metres
Revolution Number: 54   
Predicted Location:  27.3° S, 3.4° E

__________________
Page 1 of 1  sorted by
 
Quick Reply

Please log in to post quick replies.



Create your own FREE Forum
Report Abuse
Powered by ActiveBoard